GW2624 Weather Reports


Display with metric or nautical units.
time (UTC)temp
F
wind
direction
speed
MPH
gust
MPH
rain 1hr
in
rain 24hr
in
rain mn
in
humidity
%
barometer
mb
20260508130905 41 144 1.0 3.0 0.00 0.00 0.00 54 1011.6
20260508130404 40 144 1.0 2.0 0.00 0.00 0.00 55 1011.5
20260508125405 40 144 0.0 3.0 0.00 0.00 0.00 55 1011.4
20260508122905 39 148 2.0 5.0 0.00 0.00 0.00 54 1011.4
20260508122405 39 149 1.0 3.0 0.00 0.00 0.00 55 1011.5
20260508121405 37 153 3.0 6.0 0.00 0.00 0.00 58 1011.5
20260508120905 36 140 2.0 3.0 0.00 0.00 0.00 60 1011.6
20260508115404 36 143 2.0 3.0 0.00 0.00 0.00 59 1011.4
20260508114406 36 143 0.0 1.0 0.00 0.00 0.00 60 1011.4
20260508113905 36 143 0.0 2.0 0.00 0.00 0.00 61 1011.4
20260508112404 37 143 1.0 2.0 0.00 0.00 0.00 57 1011.3
20260508111905 37 143 1.0 2.0 0.00 0.00 0.00 57 1011.2
20260508111405 37 143 0.0 2.0 0.00 0.00 0.00 56 1011.4
20260508110904 38 143 0.0 2.0 0.00 0.00 0.00 56 1011.2
20260508110404 38 143 0.0 2.0 0.00 0.00 0.00 56 1011.1
20260508105904 38 143 1.0 2.0 0.00 0.00 0.00 56 1011.1
20260508104905 38 143 0.0 2.0 0.00 0.00 0.00 55 1011.0
20260508104405 38 143 0.0 2.0 0.00 0.00 0.00 55 1010.8
20260508103404 38 143 1.0 3.0 0.00 0.00 0.00 54 1010.7
20260508102405 39 143 0.0 3.0 0.00 0.00 0.00 52 1010.5
20260508095904 40 143 0.0 2.0 0.00 0.00 0.00 48 1010.5
20260508094905 42 143 0.0 2.0 0.00 0.00 0.00 45 1010.5
20260508093405 43 143 0.0 1.0 0.00 0.00 0.00 41 1010.7
20260508092905 43 143 0.0 3.0 0.00 0.00 0.00 40 1010.7
20260508092405 43 143 1.0 3.0 0.00 0.00 0.00 39 1010.7
20260508085904 44 146 2.0 3.0 0.00 0.00 0.00 36 1010.9
20260508085405 44 144 2.0 3.0 0.00 0.00 0.00 35 1010.9
20260508082905 45 159 1.0 5.0 0.00 0.00 0.00 34 1011.2
20260508080905 45 144 3.0 7.0 0.00 0.00 0.00 33 1011.4
20260508074905 45 144 1.0 3.0 0.00 0.00 0.00 34 1011.6
20260508074405 44 145 1.0 3.0 0.00 0.00 0.00 34 1011.6
20260508073904 45 144 1.0 3.0 0.00 0.00 0.00 33 1011.7
20260508072905 44 144 1.0 5.0 0.00 0.00 0.00 34 1011.8
20260508071405 45 144 1.0 3.0 0.00 0.00 0.00 34 1011.7
20260508070905 45 144 2.0 3.0 0.00 0.00 0.00 34 1011.7
20260508070405 45 148 2.0 3.0 0.00 0.00 0.00 34 1011.7
20260508065404 45 149 1.0 2.0 0.00 0.00 0.00 33 1011.9
20260508063905 46 147 3.0 5.0 0.00 0.00 0.00 33 1011.9
20260508063405 46 144 1.0 3.0 0.00 0.00 0.00 33 1011.9
20260508062904 46 146 3.0 3.0 0.00 0.00 0.00 31 1011.9
20260508062404 46 146 2.0 3.0 0.00 0.00 0.00 32 1012.0
20260508061905 46 141 2.0 3.0 0.00 0.00 0.00 32 1012.0
20260508061404 46 141 2.0 5.0 0.00 0.00 0.00 33 1012.0
20260508055405 45 151 0.0 1.0 0.00 0.00 0.00 33 1012.1
20260508054905 45 151 0.0 0.0 0.00 0.00 0.00 34 1012.1
20260508054405 46 151 0.0 0.0 0.00 0.00 0.00 34 1012.1
20260508053905 46 151 0.0 0.0 0.00 0.00 0.00 34 1012.1
20260508050904 47 151 0.0 3.0 0.00 0.00 0.00 32 1012.1
20260508050405 48 157 1.0 3.0 0.00 0.00 0.00 32 1012.1
20260508045905 48 148 0.0 1.0 0.00 0.00 0.00 32 1012.1
20260508044904 49 148 0.0 3.0 0.00 0.00 0.00 31 1012.0
20260508044405 49 148 0.0 3.0 0.00 0.00 0.00 30 1012.1
20260508043905 49 148 3.0 3.0 0.00 0.00 0.00 29 1012.1
20260508042404 50 157 0.0 3.0 0.00 0.00 0.00 29 1012.0
20260508035404 54 5 0.0 2.0 0.00 0.00 0.00 24 1012.0
20260508032904 57 0 1.0 5.0 0.00 0.00 0.00 20 1011.7
20260508031905 58 127 1.0 5.0 0.00 0.00 0.00 17 1011.4
20260508031404 59 179 1.0 5.0 0.00 0.00 0.00 16 1011.3
20260508030404 60 165 2.0 7.0 0.00 0.00 0.00 16 1011.0
20260508025904 60 138 2.0 3.0 0.00 0.00 0.00 15 1010.9
20260508024904 61 131 1.0 5.0 0.00 0.00 0.00 15 1010.7
20260508024404 61 149 2.0 6.0 0.00 0.00 0.00 15 1010.7
20260508022405 62 136 2.0 7.0 0.00 0.00 0.00 14 1010.7
20260508021905 62 139 2.0 6.0 0.00 0.00 0.00 14 1010.8
20260508021405 63 137 2.0 6.0 0.00 0.00 0.00 14 1010.7
20260508020904 63 129 3.0 5.0 0.00 0.00 0.00 14 1010.7
20260508020405 63 148 2.0 5.0 0.00 0.00 0.00 14 1010.7
20260508014404 65 0 2.0 5.0 0.00 0.00 0.00 13 1010.6
20260508012404 66 167 3.0 9.0 0.00 0.00 0.00 13 1010.6
20260508011405 67 149 3.0 8.0 0.00 0.00 0.00 13 1010.5
20260508010904 67 175 2.0 5.0 0.00 0.00 0.00 12 1010.5
20260508010404 67 134 1.0 5.0 0.00 0.00 0.00 12 1010.5
20260508005405 68 214 2.0 5.0 0.00 0.00 0.00 13 1010.5
20260508004904 68 160 2.0 5.0 0.00 0.00 0.00 13 1010.4
20260508003404 68 139 3.0 7.0 0.00 0.00 0.00 13 1010.6
20260508002904 69 158 3.0 7.0 0.00 0.00 0.00 13 1010.5
20260508002405 69 204 3.0 6.0 0.00 0.00 0.00 14 1010.6
20260508001404 69 158 2.0 7.0 0.00 0.00 0.00 14 1010.6
20260508000904 70 199 2.0 7.0 0.00 0.00 0.00 15 1010.6
20260508000405 70 173 3.0 7.0 0.00 0.00 0.00 15 1010.6
20260507233405 71 232 2.0 7.0 0.00 0.00 0.00 18 1010.7
20260507232905 71 263 1.0 3.0 0.00 0.00 0.00 18 1010.8
20260507231904 70 218 2.0 5.0 0.00 0.00 0.00 19 1011.1
20260507230405 70 135 2.0 8.0 0.00 0.00 0.00 18 1011.4
20260507224904 70 222 1.0 6.0 0.00 0.00 0.00 17 1011.6
20260507223405 70 63 2.0 5.0 0.00 0.00 0.00 17 1011.9
20260507222905 70 97 2.0 3.0 0.00 0.00 0.00 16 1012.0
20260507221405 70 331 2.0 3.0 0.00 0.00 0.00 17 1012.4
20260507220404 70 114 1.0 3.0 0.00 0.00 0.00 17 1012.6
20260507215904 70 312 2.0 6.0 0.00 0.00 0.00 16 1012.6
20260507212905 69 188 1.0 6.0 0.00 0.00 0.00 15 1013.2
20260507210904 70 301 2.0 8.0 0.00 0.00 0.00 16 1013.6
20260507205904 70 218 3.0 9.0 0.00 0.00 0.00 13 1013.8
20260507205404 70 290 2.0 10.0 0.00 0.00 0.00 13 1013.8
20260507204904 70 197 3.0 10.0 0.00 0.00 0.00 11 1013.9
20260507204404 71 344 2.0 7.0 0.00 0.00 0.00 13 1014.1
20260507203405 70 33 3.0 9.0 0.00 0.00 0.00 12 1014.2
20260507202905 70 261 3.0 7.0 0.00 0.00 0.00 12 1014.4
20260507202404 70 194 2.0 5.0 0.00 0.00 0.00 11 1014.5
20260507201905 70 29 2.0 9.0 0.00 0.00 0.00 14 1014.6
20260507201404 70 64 3.0 9.0 0.00 0.00 0.00 11 1014.7
20260507200904 70 268 2.0 6.0 0.00 0.00 0.00 14 1014.8
20260507200404 69 318 2.0 6.0 0.00 0.00 0.00 14 1014.8
20260507195905 69 27 2.0 6.0 0.00 0.00 0.00 11 1014.9
20260507195404 69 74 2.0 9.0 0.00 0.00 0.00 11 1015.0
20260507194904 68 300 2.0 9.0 0.00 0.00 0.00 13 1015.0
20260507194404 68 222 3.0 8.0 0.00 0.00 0.00 14 1015.0
20260507193905 68 235 2.0 7.0 0.00 0.00 0.00 16 1015.1
20260507192905 68 262 2.0 8.0 0.00 0.00 0.00 13 1015.2
20260507192405 67 324 2.0 8.0 0.00 0.00 0.00 14 1015.2
20260507190904 67 269 2.0 8.0 0.00 0.00 0.00 15 1015.4
20260507184405 65 288 2.0 12.0 0.00 0.00 0.00 19 1015.8
20260507183904 65 247 4.0 12.0 0.00 0.00 0.00 18 1015.9
20260507183404 65 326 3.0 12.0 0.00 0.00 0.00 20 1016.0
20260507181904 64 347 2.0 5.0 0.00 0.00 0.00 21 1016.3
20260507181404 63 9 1.0 5.0 0.00 0.00 0.00 25 1016.4
20260507175404 62 210 2.0 8.0 0.00 0.00 0.00 26 1016.8
20260507174904 61 323 2.0 8.0 0.00 0.00 0.00 27 1016.9
20260507172405 59 312 2.0 6.0 0.00 0.00 0.00 33 1017.1
20260507171404 58 308 2.0 7.0 0.00 0.00 0.00 38 1017.3
20260507163904 53 287 2.0 6.0 0.00 0.00 0.00 46 1017.9
20260507162905 52 281 2.0 8.0 0.00 0.00 0.00 49 1018.2
20260507162406 51 308 2.0 3.0 0.00 0.00 0.00 51 1018.4
20260507161905 50 1 2.0 3.0 0.00 0.00 0.00 52 1018.5
20260507160404 49 299 1.0 8.0 0.00 0.00 0.00 56 1018.7
20260507155904 48 6 2.0 8.0 0.00 0.00 0.00 57 1018.8
20260507154904 47 319 1.0 5.0 0.00 0.00 0.00 63 1019.0
20260507153905 46 7 1.0 6.0 0.00 0.00 0.00 63 1019.1
20260507151904 45 267 2.0 6.0 0.00 0.00 0.00 66 1019.0
20260507150905 44 242 2.0 6.0 0.00 0.00 0.00 68 1019.0
20260507145405 42 241 1.0 6.0 0.00 0.00 0.00 71 1019.0
20260507144904 42 234 2.0 6.0 0.00 0.00 0.00 72 1019.0
20260507143405 41 233 2.0 3.0 0.00 0.00 0.00 75 1019.2
20260507142904 40 333 1.0 3.0 0.00 0.00 0.00 77 1019.3
20260507141904 39 321 1.0 3.0 0.00 0.00 0.00 79 1019.5
20260507140904 39 262 2.0 5.0 0.00 0.00 0.00 80 1019.7
20260507135905 38 191 0.0 2.0 0.00 0.00 0.00 83 1019.8
20260507135405 37 141 0.0 2.0 0.00 0.00 0.00 84 1019.9
20260507134904 37 141 1.0 2.0 0.00 0.00 0.00 84 1019.8
20260507133905 34 0 1.0 2.0 0.00 0.00 0.00 85 1019.7
20260507131906 32 141 1.0 3.0 0.00 0.00 0.00 86 1019.6